Regional Weather Roundup
Issued by NWS

Home | Current Version | Previous Version | Graphics & Text | Print | Product List | Glossary On
Versions: 1 2 3 4 5 6 7 8 9 10 11 12 13 14 15 16 17 18 19 20 21 22 23 24 25 26 27 28 29 30 31 32 33 34 35 36 37 38 39 40 41 42 43 44 45 46 47 48 49 50
000
ASUS43 KDTX 261410
RWRMI
MICHIGAN HOURLY REGIONAL WEATHER ROUNDUP
NATIONAL WEATHER SERVICE DETROIT/PONTIAC MI
1000 AM EDT MON SEP 26 2016

NOTE: "FAIR" INDICATES FEW OR NO CLOUDS BELOW 12,000 FEET WITH NO
SIGNIFICANT WEATHER AND/OR OBSTRUCTION TO VISIBILITY.

MIZ047>049-052>055-059>063-066>070-074>076-081>083-261500-
SOUTHEAST LOWER MICHIGAN

CITY           SKY/WX    TMP DP  RH WIND       PRES   REMARKS
ADRIAN         LGT RAIN  60  59  96 W9        29.96R
ALMA           CLOUDY    58  54  84 W12G18    29.88R
ANN ARBOR      CLOUDY    61  59  93 SW12      29.91R
BAD AXE        LGT RAIN  61  59  92 W8        29.82S
CARO           LGT RAIN  61  60  95 SW8       29.84R
DETROIT CITY   LGT RAIN  63  62  97 W7        29.88S
DETROIT        RAIN      63  62  97 SW8       29.90S FOG
FLINT          CLOUDY    61  58  90 SW8       29.87R
GROSSE ILE     RAIN      63  60  93 S6        29.90R
HILLSDALE      CLOUDY    59  55  88 W10       29.94R
HOWELL         CLOUDY    60  58  94 W7        29.86F

CITY           SKY/WX    TMP DP  RH WIND       PRES   REMARKS
JACKSON        CLOUDY    60  58  92 W12       29.92S
LAMBERTVILLE   LGT RAIN  62  60  92 SW6       29.93R
LANSING        CLOUDY    60  55  83 W13G22    29.90R
LAPEER         LGT RAIN  62  59  90 W10G17    29.87R
MASON          CLOUDY    59  57  92 W10       29.90S
MONROE         LGT RAIN  61  61  98 S7G18     29.92R
MT. CLEMENS    LGT RAIN  62  62  98 S2        29.85F
PONTIAC        LGT RAIN  62  60  93 W13       29.88R
PORT HOPE        N/A     62  60  93 W7        29.79F
PORT HURON     RAIN      61  61 100 CALM      29.86S
TRI CITIES     CLOUDY    60  56  86 W16G26    29.86R
MIDLAND        PTSUNNY   58  54  86 W7G16     29.84R
TROY           LGT RAIN  64  62  91 SW5       29.89R
SAGINAW HB     CLOUDY    61  57  88 SW13G18   29.85R
$$
MIZ043>046-050>051-056>058-064>065-071>073-077>080-261500-
SOUTHWEST LOWER MICHIGAN

CITY           SKY/WX    TMP DP  RH WIND       PRES   REMARKS
BATTLE CREEK   PTSUNNY   60  58  92 W12       29.94R
BENTON HARBOR  PTSUNNY   62  46  55 W17       29.96R
BIG RAPIDS     CLOUDY    57  51  80 W9        29.85S
COLDWATER      CLOUDY    59  58  97 W9        29.95R
FREMONT        FAIR      58  46  65 W8G16     29.87S
HOLLAND        CLOUDY    62  48  60 W15G23    29.92S
GRAND RAPIDS   CLOUDY    60  51  72 W13       29.90S
IONIA          FAIR      58  52  79 W8        29.88S
KALAMAZOO      CLOUDY    60  54  80 W8        29.95R
LUDINGTON      CLOUDY    58  47  67 W15G25    29.84S
MARSHALL       CLOUDY    60  59  97 W12G18    29.93R
MOUNT PLEASANT CLOUDY    58  52  79 W7        29.85R
MUSKEGON       CLOUDY    62  46  55 W20G26    29.89F
SOUTH HAVEN    CLOUDY    64  48  57 W14G23    29.95R
$$
MIZ016>042-261500-
NORTHERN LOWER MICHIGAN

CITY           SKY/WX    TMP DP  RH WIND       PRES   REMARKS
ALPENA         LGT RAIN  59  56  89 SW7       29.76F
BEAVER ISLAND  CLOUDY    57  50  76 SW15G22   29.70F
BELLAIRE       CLOUDY    58  49  71 SW7G21    29.76F
CADILLAC       PTSUNNY   54  48  81 SW13G20   29.82R
CHARLEVOIX     CLOUDY    58  49  73 SW15G21   29.77S
FRANKFORT      CLOUDY    58  46  66 W16G26    29.80S
GAYLORD        CLOUDY    56  50  80 SW16      29.77S
GRAYLING       CLOUDY    55  51  86 SW8G17    29.80S
HARBOR SPRINGS CLOUDY    57  51  81 SW17G24   29.73S
HOUGHTON LAKE  CLOUDY    56  50  80 W14G24    29.82F
MANISTEE       PTSUNNY   57  46  66 W18G28    29.81F
OSCODA         RAIN      59  59  99 SW8       29.78S
PELLSTON       CLOUDY    58  52  80 SW12G26   29.72F
ROGERS CITY    LGT RAIN  58  56  92 S7        29.74F
TRAVERSE CITY  CLOUDY    58  48  69 SW12G17   29.77S
$$
MIZ007>008-015-261500-
EASTERN UPPER MICHIGAN

CITY           SKY/WX    TMP DP  RH WIND       PRES   REMARKS
KINROSS        LGT RAIN  57  57 100 S9        29.67F
MACKINAC ISLAN CLOUDY    60  59  98 SW13G25   29.68F
NEWBERRY       CLOUDY    55  53  93 SW10      29.66F
S. S. MARIE    LGT RAIN  60  57  89 SW10G21   29.66S FOG
MUNISING         N/A     56  50  80 SW10G17   29.64F
$$
MIZ004>006-011>014-085-261500-
CENTRAL UPPER MICHIGAN

CITY           SKY/WX    TMP DP  RH WIND       PRES   REMARKS
MANISTIQUE     MOSUNNY   53  48  82 SW7       29.68F
ESCANABA       SUNNY     54  48  80 SW12      29.69F
MENOMINEE      MOSUNNY   55  46  71 W10G17    29.74F
SAWYER-GWINN   CLOUDY    50  46  87 SW14G21   29.65F
$$
MIZ001>003-009>011-084-261500-
WESTERN UPPER MICHIGAN

CITY           SKY/WX    TMP DP  RH WIND       PRES   REMARKS
IRON MOUNTAIN  CLOUDY    52  45  77 W12       29.67F
HOUGHTON       RAIN      52  49  89 SW14G28   29.51F FOG
COPPER HARBOR    N/A     55  50  83 W8G21     29.50F
IRONWOOD       LGT RAIN  49  47  93 W23       29.66S FOG
$$

ABBREVIATIONS USED IN REMARKS
   TC - TEMPERATURE IN CELSIUS
  WCI - WIND CHILL INDEX
   HX - HEAT INDEX
  VSB - VISIBILITY




USA.gov is the U.S. government's official web portal to all federal, state and local government web resources and services.